[Date Prev][Date Next][Thread Prev][Thread Next] - [Date Index][Thread Index][Author Index]
2 Line ISS Keps 5-4
- Subject: [sarex] 2 Line ISS Keps 5-4
- From: "Dr Dave Larsen [ PhD ]" <doc@xxxxxxxxxxx>
- Date: Fri, 4 May 2001 05:00:30 -0700
ISS
1 25544U 98067A 01124.28641204 .00048003 00000-0 60807-3 0 9332
2 25544 51.5727 309.9694 0016959 10.1649 339.0545 15.58817979140217
----
Via the sarex mailing list at AMSAT.ORG courtesy of AMSAT-NA.
To unsubscribe, send "unsubscribe sarex" to Majordomo@amsat.org
AMSAT Home